• In Belgien
  • Länderverzeichnis
  • Für 7 Tage
  • Wassertemperatur
  • Satellitenkarten
  • Wetterkarte
  • Widgets
  • user-avatar
    Anmelden

    Stündliche Wetter Perth

    Heute, 22 April, Sonntag

    Zeit Temperatur Niederschläge Wind Luftdruck Luftfeuchtigkeit
    00:00 +20°C° 0 mm 4 m/S 757 mmHg 82%
    01:00 +20°C° 0 mm 4 m/S 757 mmHg 84%
    02:00 +20°C° 0 mm 3 m/S 757 mmHg 85%
    03:00 +20°C° 0,3 mm 4 m/S 757 mmHg 85%
    04:00 +20°C° 0,3 mm 4 m/S 757 mmHg 84%
    05:00 +20°C° 0,3 mm 4 m/S 757 mmHg 84%
    06:00 +20°C° 2,2 mm 4 m/S 757 mmHg 82%
    07:00 +20°C° 2,2 mm 5 m/S 757 mmHg 81%
    08:00 +20°C° 2,2 mm 5 m/S 757 mmHg 79%
    09:00 +21°C° 2,2 mm 5 m/S 757 mmHg 78%
    10:00 +22°C° 2,2 mm 6 m/S 757 mmHg 77%
    11:00 +23°C° 2,2 mm 6 m/S 756 mmHg 76%
    12:00 +23°C° 1,1 mm 7 m/S 756 mmHg 75%
    13:00 +23°C° 1,1 mm 7 m/S 756 mmHg 74%
    14:00 +23°C° 1,1 mm 8 m/S 756 mmHg 73%
    15:00 +23°C° 0,4 mm 8 m/S 756 mmHg 73%
    16:00 +22°C° 0,4 mm 8 m/S 756 mmHg 72%
    17:00 +22°C° 0,4 mm 8 m/S 756 mmHg 72%
    18:00 +21°C° 0,1 mm 7 m/S 757 mmHg 74%
    19:00 +21°C° 0,1 mm 6 m/S 757 mmHg 75%
    20:00 +20°C° 0,1 mm 6 m/S 758 mmHg 77%
    21:00 +20°C° 0,1 mm 6 m/S 758 mmHg 77%
    22:00 +19°C° 0,1 mm 6 m/S 758 mmHg 78%
    23:00 +19°C° 0,1 mm 6 m/S 758 mmHg 78%

    Morgen, 23 April, Montag

    Zeit Temperatur Niederschläge Wind Luftdruck Luftfeuchtigkeit
    00:00 +19°C° 0,1 mm 5 m/S 758 mmHg 79%
    01:00 +19°C° 0,1 mm 5 m/S 758 mmHg 79%
    02:00 +19°C° 0,1 mm 5 m/S 758 mmHg 80%
    03:00 +19°C° 0,1 mm 5 m/S 758 mmHg 81%
    04:00 +17°C° 0,1 mm 5 m/S 758 mmHg 81%
    05:00 +18°C° 0,1 mm 4 m/S 759 mmHg 82%
    06:00 +19°C° 0,1 mm 4 m/S 759 mmHg 80%
    07:00 +19°C° 0,1 mm 4 m/S 759 mmHg 78%
    08:00 +20°C° 0,1 mm 4 m/S 760 mmHg 76%
    09:00 +21°C° 0,1 mm 4 m/S 760 mmHg 71%
    10:00 +22°C° 0,1 mm 5 m/S 760 mmHg 65%
    11:00 +23°C° 0,1 mm 5 m/S 761 mmHg 59%
    12:00 +23°C° 0 mm 5 m/S 760 mmHg 57%
    13:00 +23°C° 0 mm 5 m/S 760 mmHg 54%
    14:00 +23°C° 0 mm 5 m/S 760 mmHg 51%
    15:00 +23°C° 0 mm 5 m/S 760 mmHg 53%
    16:00 +22°C° 0 mm 4 m/S 760 mmHg 55%
    17:00 +21°C° 0 mm 4 m/S 761 mmHg 57%
    18:00 +20°C° 0 mm 3 m/S 761 mmHg 62%
    19:00 +19°C° 0 mm 3 m/S 762 mmHg 67%
    20:00 +18°C° 0 mm 2 m/S 762 mmHg 72%
    21:00 +17°C° 0 mm 2 m/S 762 mmHg 74%
    22:00 +17°C° 0 mm 2 m/S 763 mmHg 76%
    23:00 +16°C° 0 mm 1 m/S 763 mmHg 78%

    übermorgen, 24 April, Dienstag

    Zeit Temperatur Niederschläge Wind Luftdruck Luftfeuchtigkeit
    00:00 +16°C° 0 mm 1 m/S 763 mmHg 79%
    01:00 +16°C° 0 mm 1 m/S 763 mmHg 81%
    02:00 +15°C° 0 mm 1 m/S 762 mmHg 82%
    03:00 +15°C° 0 mm 1 m/S 762 mmHg 83%
    04:00 +15°C° 0 mm 1 m/S 762 mmHg 84%
    05:00 +14°C° 0 mm 1 m/S 762 mmHg 85%
    06:00 +15°C° 0 mm 2 m/S 763 mmHg 82%
    07:00 +15°C° 0 mm 2 m/S 763 mmHg 79%
    08:00 +16°C° 0 mm 2 m/S 764 mmHg 77%
    09:00 +18°C° 0 mm 2 m/S 764 mmHg 68%
    10:00 +20°C° 0 mm 2 m/S 764 mmHg 60%
    11:00 +21°C° 0 mm 2 m/S 764 mmHg 51%
    12:00 +23°C° 0 mm 2 m/S 763 mmHg 49%
    13:00 +23°C° 0 mm 2 m/S 763 mmHg 47%
    14:00 +24°C° 0 mm 3 m/S 762 mmHg 45%
    15:00 +22°C° 0 mm 3 m/S 762 mmHg 48%
    16:00 +22°C° 0 mm 3 m/S 762 mmHg 50%
    17:00 +21°C° 0 mm 4 m/S 762 mmHg 53%
    18:00 +20°C° 0 mm 4 m/S 763 mmHg 59%
    19:00 +18°C° 0 mm 4 m/S 763 mmHg 64%
    20:00 +17°C° 0 mm 4 m/S 764 mmHg 70%
    21:00 +17°C° 0 mm 4 m/S 764 mmHg 71%
    22:00 +15°C° 0 mm 4 m/S 764 mmHg 73%
    23:00 +16°C° 0 mm 3 m/S 764 mmHg 74%

    25 April, Mittwoch

    Zeit Temperatur Niederschläge Wind Luftdruck Luftfeuchtigkeit
    00:00 +14°C° 0 mm 3 m/S 764 mmHg 74%
    01:00 +14°C° 0 mm 3 m/S 764 mmHg 74%
    02:00 +14°C° 0 mm 3 m/S 763 mmHg 74%
    03:00 +14°C° 0 mm 4 m/S 763 mmHg 74%
    04:00 +13°C° 0 mm 4 m/S 763 mmHg 74%
    05:00 +13°C° 0 mm 4 m/S 763 mmHg 75%
    06:00 +14°C° 0 mm 4 m/S 764 mmHg 72%
    07:00 +14°C° 0 mm 4 m/S 764 mmHg 69%
    08:00 +15°C° 0 mm 4 m/S 765 mmHg 66%
    09:00 +18°C° 0 mm 4 m/S 765 mmHg 59%
    10:00 +20°C° 0 mm 4 m/S 764 mmHg 51%
    11:00 +22°C° 0 mm 4 m/S 764 mmHg 43%
    12:00 +24°C° 0 mm 3 m/S 763 mmHg 40%
    13:00 +25°C° 0 mm 3 m/S 762 mmHg 36%
    14:00 +26°C° 0 mm 3 m/S 761 mmHg 33%
    15:00 +26°C° 0 mm 3 m/S 761 mmHg 34%
    16:00 +25°C° 0 mm 3 m/S 761 mmHg 36%
    17:00 +25°C° 0 mm 3 m/S 761 mmHg 37%
    18:00 +22°C° 0 mm 4 m/S 761 mmHg 41%
    19:00 +21°C° 0 mm 4 m/S 761 mmHg 44%
    20:00 +19°C° 0 mm 4 m/S 762 mmHg 47%
    21:00 +19°C° 0 mm 4 m/S 761 mmHg 47%
    22:00 +19°C° 0 mm 4 m/S 761 mmHg 47%
    23:00 +19°C° 0 mm 5 m/S 761 mmHg 47%

    26 April, Donnerstag

    Zeit Temperatur Niederschläge Wind Luftdruck Luftfeuchtigkeit
    00:00 +19°C° 0 mm 5 m/S 761 mmHg 47%
    01:00 +19°C° 0 mm 4 m/S 761 mmHg 48%
    02:00 +19°C° 0 mm 4 m/S 760 mmHg 48%
    03:00 +19°C° 0 mm 4 m/S 760 mmHg 51%
    04:00 +19°C° 0 mm 4 m/S 759 mmHg 53%
    05:00 +19°C° 0 mm 4 m/S 759 mmHg 56%
    06:00 +19°C° 0 mm 4 m/S 759 mmHg 57%
    07:00 +20°C° 0 mm 4 m/S 759 mmHg 58%
    08:00 +21°C° 0 mm 4 m/S 759 mmHg 60%
    09:00 +25°C° 0 mm 4 m/S 759 mmHg 55%
    10:00 +27°C° 0 mm 3 m/S 759 mmHg 51%
    11:00 +30°C° 0 mm 3 m/S 759 mmHg 47%
    12:00 +30°C° 0 mm 3 m/S 758 mmHg 45%
    13:00 +30°C° 0 mm 3 m/S 758 mmHg 43%
    14:00 +31°C° 0 mm 3 m/S 757 mmHg 42%
    15:00 +30°C° 0 mm 4 m/S 757 mmHg 47%
    16:00 +28°C° 0 mm 4 m/S 758 mmHg 52%
    17:00 +27°C° 0 mm 5 m/S 758 mmHg 57%
    18:00 +25°C° 0 mm 4 m/S 758 mmHg 63%
    19:00 +23°C° 0 mm 4 m/S 759 mmHg 69%
    20:00 +21°C° 0 mm 4 m/S 759 mmHg 75%
    21:00 +21°C° 0 mm 4 m/S 760 mmHg 75%
    22:00 +20°C° 0 mm 4 m/S 760 mmHg 75%
    23:00 +20°C° 0 mm 4 m/S 760 mmHg 75%

    27 April, Freitag

    Zeit Temperatur Niederschläge Wind Luftdruck Luftfeuchtigkeit
    00:00 +19°C° 0 mm 4 m/S 760 mmHg 76%
    01:00 +19°C° 0 mm 4 m/S 760 mmHg 77%
    02:00 +19°C° 0 mm 4 m/S 761 mmHg 77%
    03:00 +18°C° 0 mm 4 m/S 761 mmHg 78%
    04:00 +18°C° 0 mm 4 m/S 761 mmHg 78%
    05:00 +17°C° 0 mm 4 m/S 761 mmHg 79%
    06:00 +17°C° 0 mm 4 m/S 762 mmHg 77%
    07:00 +18°C° 0 mm 3 m/S 762 mmHg 74%
    08:00 +18°C° 0 mm 3 m/S 763 mmHg 72%
    09:00 +20°C° 0 mm 3 m/S 763 mmHg 64%
    10:00 +22°C° 0 mm 3 m/S 763 mmHg 56%
    11:00 +25°C° 0 mm 3 m/S 763 mmHg 48%
    12:00 +25°C° 0 mm 3 m/S 762 mmHg 46%
    13:00 +26°C° 0 mm 4 m/S 762 mmHg 43%
    14:00 +26°C° 0 mm 4 m/S 762 mmHg 41%
    15:00 +26°C° 0 mm 4 m/S 762 mmHg 44%
    16:00 +25°C° 0 mm 4 m/S 763 mmHg 48%
    17:00 +23°C° 0 mm 4 m/S 763 mmHg 51%
    18:00 +22°C° 0 mm 4 m/S 763 mmHg 57%
    19:00 +21°C° 0 mm 4 m/S 764 mmHg 63%
    20:00 +20°C° 0 mm 4 m/S 764 mmHg 69%
    21:00 +20°C° 0 mm 4 m/S 764 mmHg 70%
    22:00 +19°C° 0 mm 4 m/S 764 mmHg 71%
    23:00 +19°C° 0 mm 4 m/S 765 mmHg 72%
    Mehr zeigen